Flag for China Weather past 2 weeks in Guilin, Guangxi, China

Now
82 °F

Mostly cloudy.


Feels Like: 87 °F
Forecast: 73 / 86 °F
Wind: 3 mph from East

Location: Guilin Airport

Current Time: Jul 29, 2015 at 1:23:04 PM

Latest Report: Jul 29, 2015 at 1:00 PM


Visibility: N/A

Pressure: 29.83 "Hg

Humidity: 70%

Dew point: 72 °F

Location of GuilinLocation

Historic Weather in Guilin — Graph

°F

Guilin temperature yesterday

Maximum temperature yesterday: 86 °F (at 2:00 PM)
Minimum temperature yesterday: 73 °F (at 12:00 AM)
Average temperature yesterday: 78 °F

Past Weeks' High & Low Weather Summary

 TemperatureHumidityPressure
High99 °F (Jul 14, 3:00 PM)100% (Jul 16, 2:00 AM)29.86 "Hg (Jul 16, 2:00 AM)
Low72 °F (Jul 29, 5:00 AM)44% (Jul 14, 3:00 PM)29.47 "Hg (Jul 15, 5:00 PM)
Average81 °F83%29.67 "Hg
* Reported Jul 14 12:00 Noon — Jul 29 12:00 Noon, Guilin, Weather by CustomWeather, © 2015

Note: Actual official high and low records may vary slightly from our data, if they occured in-between our weather recording intervals... More about our weather records

Advertising

Guilin weather history for previous 24 hours

 ConditionsComfort  
Time TempWeatherWind HumidityBarometerVisibility
12:00 PM
Wed, Jul 29
81 °FMostly cloudy.3 mph74%29.86 "HgN/A
11:00 AM82 °FMore clouds than sun.3 mph70%29.86 "HgN/A
10:00 AM81 °FBroken clouds.3 mph74%29.86 "HgN/A
9:00 AM79 °FBroken clouds.1 mph79%29.86 "HgN/A
8:00 AM79 °FScattered clouds.No wind84%29.83 "Hg5 mi
7:00 AM73 °FFog.No wind100%29.83 "Hg2 mi
6:00 AM72 °FFog.No wind100%29.83 "Hg2 mi
5:00 AM72 °FFog.No wind100%29.80 "Hg3 mi
4:00 AM73 °FClear.No wind100%29.80 "Hg4 mi
3:00 AM73 °FClear.1 mph100%29.80 "Hg4 mi
2:00 AM73 °FClear.1 mph100%29.83 "Hg4 mi
1:00 AM75 °FClear.No wind100%29.86 "Hg4 mi
12:00 AM75 °FClear.1 mph100%29.86 "Hg4 mi
11:00 PM
Tue, Jul 28
77 °FPassing clouds.3 mph94%29.86 "Hg5 mi
10:00 PM77 °FPassing clouds.1 mph94%29.86 "HgN/A
9:00 PM77 °FPartly cloudy.3 mph100%29.83 "HgN/A
8:00 PM79 °FPassing clouds.1 mph94%29.83 "HgN/A
7:00 PM81 °FBroken clouds.1 mph89%29.80 "HgN/A
6:00 PM81 °FBroken clouds.1 mph84%29.77 "HgN/A
5:00 PM82 °FScattered clouds.1 mph79%29.77 "HgN/A
4:00 PM77 °FRain showers. Broken clouds.1 mph89%29.80 "Hg1 mi
3:00 PM84 °FBroken clouds.3 mph74%29.80 "HgN/A
2:00 PM86 °FPartly sunny.3 mph66%29.80 "HgN/A
1:00 PM84 °FPartly sunny.6 mph70%29.83 "HgN/A
Weather by CustomWeather, © 2015

See weather overviewHow to use our weather pages